User: anonymous   Login
Location: Mentone
(34.5413°N, 85.5351°W)
Time: 23:22:44
(UTC-05:00)
Language:

ATLAS 5 CENTAUR R/B - Orbit

View from above orbital plane
View from above orbital plane
View from above satellite
View from above satellite

Ground track
Ground track

The orbit data is extracted from the following two-line orbital elements,

1 31702U 07027B   15186.93362014 0.00000200  00000-0  80326-4 0    06
2 31702  63.3740 136.9596 0193000 355.1427   4.8572 14.18379578    06
Epoch (UTC): 05 July 2015 22:24:24
Eccentricity: 0.0193000
inclination: 63.3740°
perigee height: 692 km
apogee height: 970 km
right ascension of ascending node: 136.9596°
argument of perigee: 355.1427°
revolutions per day: 14.18379578
mean anomaly at epoch: 4.8572°
orbit number at epoch: 0

The dashed part of the orbit path shows where the satellite is in the earth's shadow,  

DLR